{"data":{"norad_id":66193,"epoch":"2026-09-20T16:52:21.175104Z","epoch_age_seconds":82897,"freshness":"FRESH","line1":"1 66193U 25243S   26263.70302286  .00026253  00000+0  78500-3 0  9998","line2":"2 66193  53.1574  58.5557 0001627  90.4254 269.6935 15.34415891 50520","mean_motion":15.34415891,"eccentricity":0.0001627,"inclination_deg":53.1574,"raan_deg":58.5557,"arg_perigee_deg":90.4254,"mean_anomaly_deg":269.6935,"bstar":0.000785,"rev_number":5052,"period_min":93.846786157926,"perigee_km":461.54301219125,"apogee_km":463.76900623645,"semimajor_km":6840.7930092139,"source":"CELESTRAK","updated_at":"2026-09-21T09:00:35.836776Z"}}